Regional Weather Roundup
Issued by NWS Sioux Falls, SD

Home | Current Version | Previous Version | Text Only | Print | Product List | Glossary On
Versions: 1 2 3 4 5 6 7 8 9 10 11 12 13 14 15 16 17 18 19 20 21 22 23 24 25 26 27 28 29 30 31 32 33 34 35 36 37 38 39 40 41 42 43 44 45 46 47 48 49 50
000
ASUS43 KFSD 260510
RWRFSD

WEATHER ROUNDUP FOR SE SOUTH DAKOTA/SW MINNESOTA/NW IOWA
NATIONAL WEATHER SERVICE SIOUX FALLS SD
1100 PM CST SAT FEB 25 2017

NOTE: "FAIR" INDICATES FEW OR NO CLOUDS BELOW 12,000 FEET WITH NO
SIGNIFICANT WEATHER AND OR OBSTRUCTIONS TO VISIBILITY.


SDZ038>040-050-052>070-260600-
SOUTHEAST SOUTH DAKOTA

CITY           SKY/WX    TMP DP  RH WIND       PRES   REMARKS
BROOKINGS      MOCLDY    25  20  81 SW13      29.74F WCI  14
CHAMBERLAIN    CLOUDY    28  25  87 CALM      29.76S
HURON          CLEAR     23  22  96 W5        29.76F WCI  17
MADISON        FAIR      23  23 100 SW10      29.76S WCI  12
MITCHELL       PTCLDY    28  21  75 SW8       29.78F WCI  20
SIOUX FALLS    MOCLDY    24  19  81 SW6       29.79F WCI  17
WINNER         FAIR      25  17  72 S9        29.76S WCI  15
YANKTON        CLEAR     27  16  63 SW5       29.81F WCI  21
$$

MNZ071-072-080-081-089-090-097-098-260600-
SOUTHWEST MINNESOTA

CITY           SKY/WX    TMP DP  RH WIND       PRES   REMARKS
FAIRMONT       MOCLDY    21  15  78 S15       29.83F WCI   8
JACKSON        CLOUDY    21  14  73 S12       29.81F WCI   9
LUVERNE        CLOUDY    21  18  86 S7        29.80F WCI  13
MARSHALL       CLOUDY    27  20  75 SW21      29.76F WCI  13
MONTEVIDEO     CLOUDY    28  21  74 W13       29.76F WCI  18
PIPESTONE      CLOUDY    23  18  80 SW10      29.76F WCI  12
REDWOOD FALLS  MOCLDY    26  18  71 SW14      29.79F WCI  14
TRACY          CLOUDY    27  21  79 SW22      29.77S WCI  12
WINDOM         CLOUDY    23  18  80 S13       29.79F WCI  11
WORTHINGTON    PTCLDY    21  17  84 SW17      29.79F WCI   7
$$

IAZ001>003-012>014-020>022-031-032-NEZ013-014-SDZ071-260600-
NORTHWEST IOWA

CITY           SKY/WX    TMP DP  RH WIND       PRES   REMARKS
CHEROKEE       PTCLDY    19  15  82 CALM      29.84F
DENISON        PTCLDY    25  18  74 S8        29.85F WCI  16
ESTHERVILLE    CLOUDY    16  13  88 S12       29.82F WCI   3
LE MARS        CLOUDY    23  18  80 S8        29.85F WCI  14
SHELDON        PTCLDY    21  21 100 S8        29.81S WCI  12
SIOUX CITY     CLOUDY    23  16  74 E6        29.86F WCI  16
SPENCER        CLEAR     14  11  87 S7        29.83F WCI   4
STORM LAKE     CLEAR     18  14  86 S12       29.84F WCI   5
$$

ABBREVIATIONS USED IN REMARKS
   TC - TEMPERATURE IN CELSIUS
  WCI - WIND CHILL INDEX
   HX - HEAT INDEX
  VSB - VISIBILITY





USA.gov is the U.S. government's official web portal to all federal, state and local government web resources and services.